Location: Newark
(50.2306°N, 14.0814°E)
Time: 12:48:04
(UTC+00:00)

N. Korean satellite - Pass Details

Date: 06 December 2019
Orbit: 454 x 508 km, 97.2° (Epoch: 17 January)

Event Time Altitude Azimuth Distance (km) Brightness Sun altitude
Rises 15:46:26 0° 160° (SSE) 2,604 10.4 -6.9°
Reaches altitude 10° 15:48:31 10° 158° (SSE) 1,723 9.4 -7.2°
Maximum altitude 15:52:14 71° 75° (ENE) 543 6.6 -7.8°
Drops below altitude 10° 15:55:57 10° 351° (N) 1,729 9.2 -8.3°
Sets 15:58:02 0° 349° (N) 2,614 10.1 -8.6°
